This is the latest recevied weather packets stored in our database for station/object dl1wer-13. If no packets are shown the sender has not sent any weather packets the latest 10 day(s).
| Time | Temp. | Humidity | Pressure | Rain* | Wind** | Luminosity | Snow |
|---|---|---|---|---|---|---|---|
| 1778174424 | 14.44° C | 64% | 1040.5 hPa | 0 mm | - | - | - |
| 1778173824 | 14.44° C | 66% | 1040.5 hPa | 0 mm | - | - | - |
| 1778173224 | 14.44° C | 66% | 1040.5 hPa | 0 mm | - | - | - |
| 1778172624 | 14.44° C | 67% | 1040.5 hPa | 0 mm | - | - | - |
| 1778172024 | 14.44° C | 66% | 1040.5 hPa | 0 mm | - | - | - |
| 1778171424 | 15° C | 61% | 1040.3 hPa | 0 mm | - | - | - |
| 1778170824 | 15° C | 61% | 1040.1 hPa | 0 mm | - | - | - |
| 1778170224 | 15° C | 61% | 1040.2 hPa | 0 mm | - | - | - |
| 1778169625 | 15° C | 60% | 1040.1 hPa | 0 mm | - | - | - |
| 1778169024 | 15.56° C | 61% | 1040.2 hPa | 0 mm | - | - | - |
| 1778168423 | 15° C | 62% | 1040.2 hPa | 0 mm | - | - | - |
| 1778167824 | 15° C | 63% | 1040.1 hPa | 0 mm | - | - | - |
| 1778167224 | 14.44° C | 62% | 1040 hPa | 0 mm | - | - | - |
| 1778166624 | 15° C | 60% | 1040.1 hPa | 0 mm | - | - | - |
| 1778166024 | 15° C | 60% | 1040.1 hPa | 0 mm | - | - | - |
| 1778165424 | 15° C | 61% | 1040.3 hPa | 0 mm | - | - | - |
| 1778164824 | 14.44° C | 62% | 1040.2 hPa | 0 mm | - | - | - |
| 1778164224 | 14.44° C | 63% | 1040.4 hPa | 0 mm | - | - | - |
| 1778163624 | 14.44° C | 62% | 1040.3 hPa | 0 mm | - | - | - |
| 1778163024 | 15° C | 62% | 1040.3 hPa | 0 mm | - | - | - |
| 1778162424 | 14.44° C | 62% | 1040.2 hPa | 0 mm | - | - | - |
| 1778161823 | 14.44° C | 63% | 1040.4 hPa | 0 mm | - | - | - |
| 1778161223 | 14.44° C | 67% | 1040.4 hPa | 0 mm | - | - | - |
| 1778160625 | 14.44° C | 65% | 1040.3 hPa | 0 mm | - | - | - |
| 1778160024 | 14.44° C | 68% | 1040.2 hPa | 0 mm | - | - | - |
* Rain latest hour (hover to see other rain measurements)
** Current wind speed in m/s (hover to see current wind gust speed)